Regional Weather Roundup
Issued by NWS

Home | Current Version | Previous Version | Graphics & Text | Print | Product List | Glossary On
Versions: 1 2 3 4 5 6 7 8 9 10 11 12 13 14 15 16 17 18 19 20 21 22 23 24 25 26 27 28 29 30 31 32 33 34 35 36 37 38 39 40 41 42 43 44 45 46 47 48 49 50
000
ASUS43 KOAX 171710
RWRNE

WEATHER ROUNDUP FOR NEBRASKA
NATIONAL WEATHER SERVICE OMAHA NE
1200 PM CDT THU AUG 17 2017

NOTES: SATELLITE DATA IS BEING USED TO AUGMENT CLOUD COVER ABOVE
       12000 FEET.
       "FAIR" INDICATES FEW OR NO CLOUDS BELOW 12,000 FEET WITH NO
       SIGNIFICANT WEATHER AND/OR OBSTRUCTIONS TO VISIBILITY.


NEZ001>004-019>022-054>056-171800-
NEBRASKA PANHANDLE

CITY           SKY/WX    TMP DP  RH WIND       PRES   REMARKS
SCOTTSBLUFF    CLOUDY    77  58  51 E6        30.05F
ALLIANCE       SUNNY     79  53  40 S13       30.04S
CHADRON        CLOUDY    79  51  37 CALM      29.98F
GORDON         FAIR      79  56  44 SW10      30.01S
KIMBALL        SUNNY     80  46  29 SW7       30.11F
SIDNEY         SUNNY     78  51  38 S13       30.10F
$$

NEZ057>060-069>072-079>082-171800-
SOUTHWEST NEBRASKA

CITY           SKY/WX    TMP DP  RH WIND       PRES   REMARKS
NORTH PLATTE   SUNNY     79  57  46 SW12      30.05F
IMPERIAL       SUNNY     81  55  40 SW10      30.07F
LEXINGTON      SUNNY     77  60  54 SW8       30.06S
MCCOOK         SUNNY     79  56  45 S6        30.06F
OGALLALA       SUNNY     80  58  46 S15       30.05F
$$

NEZ005>010-023>029-035>040-094-171800-
NORTH CENTRAL NEBRASKA

CITY           SKY/WX    TMP DP  RH WIND       PRES   REMARKS
VALENTINE      SUNNY     82  53  36 VRB6      29.98F
AINSWORTH      SUNNY     79  58  48 W6        30.00F
BROKEN BOW     SUNNY     78  60  53 W10       30.03F
O`NEILL        SUNNY     73  58  57 CALM      30.00S
ORD            SUNNY     77  55  46 W8        30.00S
THEDFORD       SUNNY     81  55  41 SW12G17   30.03S
$$

NEZ041-046>049-061>064-073>077-083>087-171800-
SOUTH CENTRAL NEBRASKA

CITY           SKY/WX    TMP DP  RH WIND       PRES   REMARKS
GRAND ISLAND   SUNNY     78  56  46 W13       30.02S
AURORA         SUNNY     75  60  60 W5        30.01F
HASTINGS       SUNNY     76  57  51 W10       30.04S
HEBRON         SUNNY     79  58  47 W7        30.02S
HOLDREGE       SUNNY     74  60  60 W14       30.06F
KEARNEY        SUNNY     77  59  53 W12       30.05S
YORK           SUNNY     73  57  56 NW9       30.01S
$$

NEZ011>018-030>034-042>045-171800-
NORTHEAST NEBRASKA

CITY           SKY/WX    TMP DP  RH WIND       PRES   REMARKS
NORFOLK        SUNNY     76  56  49 NW17      29.95F
ALBION         SUNNY     77  56  49 NW8       30.00R
BLAIR          RAIN      74  60  61 NW14G22   29.94S
COLUMBUS       SUNNY     74  60  61 NW9       29.99S
FREMONT        SUNNY     76  59  56 NW14G20   29.96S
TEKAMAH        SUNNY     76  59  55 NW17G23   29.92R
WAYNE          SUNNY     74  58  58 NW16G23   29.95R
$$

NEZ050>053-065>068-078-088>093-171800-
SOUTHEAST NEBRASKA

CITY           SKY/WX    TMP DP  RH WIND       PRES   REMARKS
LINCOLN        SUNNY     78  56  46 NW10G21   29.98S
OMAHA EPPLEY   MOSUNNY   79  59  50 NW14G23   29.93R
BEATRICE       SUNNY     80  58  46 NW15      29.99S
FALLS CITY     SUNNY     77  60  55 NW14G22   29.95S
NEBRASKA CITY  SUNNY     77  62  60 NW15G25   29.96S
PLATTSMOUTH    SUNNY     76  58  54 NW15G21   29.96R
$$

NEZ044-045-051>053-067-171800-
OMAHA AREA

CITY           SKY/WX    TMP DP  RH WIND       PRES   REMARKS
OMAHA EPPLEY   MOSUNNY   79  59  50 NW14G23   29.93R
BLAIR          RAIN      74  60  61 NW14G22   29.94S
FREMONT        SUNNY     76  59  56 NW14G20   29.96S
MILLARD        MOSUNNY   77  61  56 NW13G18   29.95R
OFFUTT AFB     SUNNY     79  57  46 NW16G26   29.93R
PLATTSMOUTH    SUNNY     76  58  54 NW15G21   29.96R
WAHOO          FAIR      74  60  61 NW12      29.96S
$$



USA.gov is the U.S. government's official web portal to all federal, state and local government web resources and services.